Location: The Saddle
(36.8333°N, 80.3417°W)
Time: 09:34:33
(UTC-04:00)

Courier 1B - All Passes

Search period start: 18 September 2024 00:00
Search period end: 28 September 2024 00:00
Orbit: 962 x 1208 km, 28.3° (Epoch: 17 September)

Date Brightness Start Highest point End Pass type
(mag) Time Alt. Az. Time Alt. Az. Time Alt. Az.
18 Sep - 11:51:22 10° S 11:53:34 12° SSE 11:55:49 10° SE daylight
18 Sep - 13:40:51 10° SW 13:46:41 30° SSE 13:52:49 10° ESE daylight
18 Sep - 15:33:34 10° WSW 15:40:13 43° S 15:47:17 10° ESE daylight
18 Sep - 17:27:15 10° WSW 17:33:59 38° S 17:41:00 10° SE daylight
18 Sep - 19:22:05 10° WSW 19:27:33 21° SSW 19:33:08 10° SSE daylight
19 Sep - 12:47:45 10° SSW 12:53:00 24° SSE 12:58:31 10° ESE daylight
19 Sep - 14:39:59 10° WSW 14:46:25 41° S 14:53:15 10° ESE daylight
19 Sep - 16:33:26 10° WSW 16:40:07 41° S 16:47:10 10° ESE daylight
19 Sep - 18:27:48 10° WSW 18:33:45 26° SSW 18:39:53 10° SSE daylight
20 Sep - 11:54:53 10° SSW 11:59:23 19° SSE 12:04:02 10° ESE daylight
20 Sep - 13:46:30 10° SW 13:52:39 37° SSE 13:59:10 10° ESE daylight
20 Sep - 15:39:42 10° WSW 15:46:17 43° S 15:53:16 10° ESE daylight
20 Sep - 17:33:43 10° WSW 17:39:57 30° SSW 17:46:26 10° SE daylight
20 Sep - 19:30:07 10° SW 19:33:22 13° SSW 19:36:40 10° S daylight
21 Sep - 11:02:28 10° S 11:05:48 14° SSE 11:09:11 10° ESE daylight
21 Sep - 12:53:07 10° SW 12:58:57 32° SSE 13:05:04 10° ESE daylight
21 Sep - 14:46:02 10° WSW 14:52:28 43° S 14:59:19 10° ESE daylight
21 Sep - 16:39:48 10° WSW 16:46:08 34° SSW 16:52:48 10° SE daylight
21 Sep - 18:35:04 10° WSW 18:39:36 17° SSW 18:44:16 10° SSE daylight
22 Sep - 11:59:53 10° SW 12:05:17 27° SSE 12:10:54 10° ESE daylight
22 Sep - 13:52:26 10° WSW 13:58:42 41° S 14:05:20 10° ESE daylight
22 Sep - 15:45:59 10° WSW 15:52:20 37° S 15:59:03 10° SE daylight
22 Sep - 17:40:37 10° WSW 17:45:51 21° SSW 17:51:18 10° SSE daylight
23 Sep - 11:06:49 10° SSW 11:11:40 22° SSE 11:16:39 10° ESE daylight
23 Sep - 12:58:55 10° WSW 13:04:58 38° S 13:11:21 10° ESE daylight
23 Sep - 14:52:15 10° WSW 14:58:33 40° S 15:05:14 10° ESE daylight
23 Sep - 16:46:27 10° WSW 16:52:06 25° SSW 16:58:00 10° SSE daylight
24 Sep - 10:14:02 10° SSW 10:18:05 17° SSE 10:22:11 10° ESE daylight
24 Sep - 12:05:27 10° SW 12:11:17 34° SSE 12:17:21 10° ESE daylight
24 Sep - 13:58:34 10° WSW 14:04:47 41° S 14:11:22 10° ESE daylight
24 Sep - 15:52:29 10° WSW 15:58:20 30° SSW 16:04:31 10° SE daylight
24 Sep - 17:48:36 10° SW 17:51:43 13° SSW 17:54:54 10° S daylight
25 Sep - 09:21:46 10° S 09:24:31 13° SSE 09:27:17 10° SE daylight
25 Sep - 11:12:06 10° SW 11:17:38 30° SSE 11:23:19 10° ESE daylight
25 Sep - 13:04:56 10° WSW 13:11:04 41° S 13:17:28 10° ESE daylight
25 Sep - 14:58:38 10° WSW 15:04:36 33° SSW 15:10:54 10° SE daylight
25 Sep - 16:53:43 10° WSW 16:58:00 17° SSW 17:02:26 10° SSE daylight
26 Sep - 10:18:52 10° SW 10:24:00 25° SSE 10:29:14 10° ESE daylight
26 Sep - 12:11:22 10° WSW 12:17:21 39° S 12:23:34 10° ESE daylight
26 Sep - 14:04:52 10° WSW 14:10:53 36° S 14:17:11 10° SE daylight
26 Sep - 15:59:22 10° WSW 16:04:18 21° SSW 16:09:26 10° SSE daylight
27 Sep - 09:25:48 10° SSW 09:30:25 21° SSE 09:35:03 10° ESE daylight
27 Sep - 11:17:50 10° SW 11:23:40 37° S 11:29:40 10° ESE daylight
27 Sep - 13:11:09 10° WSW 13:17:10 39° S 13:23:26 10° ESE daylight
27 Sep - 15:05:17 10° WSW 15:10:36 25° SSW 15:16:10 10° SSE daylight
